TIME,�g��[���C[MJ/h],����[MJ/h],�Ɩ�[MJ/h],�~�[[MJ/h],�①��[MJ/h],��y���[MJ/h],�Ǝ��q��[MJ/h],���̑�[MJ/h],�����G�l���M�[[MJ/h]
2004/5/1 0:00,0,0,0,0.1836,0.2516,0.3584,0.1508,1.4972,0
2004/5/1 0:15,0,0,0,0.2015,0.1689,0.5348,0.0536,1.4966,0
2004/5/1 0:30,0,0,0,0.1961,0.3956,0.5551,0.0078,1.4394,0
2004/5/1 0:45,0,0,0,0.1889,0.2389,0.5704,0.0078,1.8128,0
2004/5/1 1:00,0,0,0,0.2017,0.1963,0.563,0.05,1.669,0
2004/5/1 1:15,0,0,0,0.1904,0.3963,0.5416,0.0078,1.3507,0
2004/5/1 1:30,0,0,0,0.1992,0.2625,0.4143,0.0079,1.2161,0
2004/5/1 1:45,0,0,0,0.1984,0.1705,0.219,0.0521,0.755,0
2004/5/1 2:00,0,0,0,0.1943,0.3917,0.0435,0.0078,0.3198,0
2004/5/1 2:15,0,0,0,0.197,0.2477,0.0431,0.0078,0.3247,0
2004/5/1 2:30,0,0,0,0.3812,0.175,0.0428,0.0566,0.1691,0
2004/5/1 2:45,0,0,0,0.4067,0.3887,0.0429,0.0079,0.1642,0
2004/5/1 3:00,0,0,0,0.1646,0.3649,0.0432,0.0078,0.3354,0
2004/5/1 3:15,0,0,0,0.1876,0.3151,0.0432,0.0078,0.3182,0
2004/5/1 3:30,0,0,0,0.2231,0.5751,0.0433,0.055,0.3247,0
2004/5/1 3:45,0,0,0,0.2226,0.5044,0.0436,0.0078,0.3155,0
2004/5/1 4:00,0,0,0,0.2313,0.5322,0.0436,0.0079,0.3295,0
2004/5/1 4:15,0,0,0,0.2285,0.4689,0.0438,0.0511,0.3256,0
2004/5/1 4:30,0,0,0,0.2244,0.4297,0.0429,0.0078,0.3151,0
2004/5/1 4:45,0,0,0,0.2288,0.4618,0.0433,0.0079,0.4539,0
2004/5/1 5:00,0,0,0,0.2321,0.4005,0.0433,0.0536,0.4368,0
2004/5/1 5:15,0,0,0,0.2259,0.0312,0.0436,0.0079,0.3597,0
2004/5/1 5:30,0,0,0,0.2317,0.3766,0.0438,0.0078,0.3187,0
2004/5/1 5:45,0,0,0,0.2318,0.3321,0.0438,0.0516,0.3155,0
2004/5/1 6:00,0,0,0,0.2288,0.0966,0.0436,0.0078,0.3207,0
2004/5/1 6:15,0,0,0,0.2304,0.3881,0.0436,0.0078,0.3129,0
2004/5/1 6:30,0,0,0,0.2318,0.1911,0.0436,0.0534,0.3358,0
2004/5/1 6:45,0,0,0,0.2304,0.1197,0.0435,0.0078,0.3286,0
2004/5/1 7:00,0,0,0,0.2328,0.308,0.0436,0.0078,0.3145,0
2004/5/1 7:15,0,0,0,0.2278,0.1542,0.0609,0.0592,0.3169,0
2004/5/1 7:30,0,0,0,0.231,0.185,0.0436,0.0078,0.3172,0
2004/5/1 7:45,0,0,0,0.2268,0.3037,0.0432,0.0976,0.4484,0
2004/5/1 8:00,0,0,0,0.2295,0.1424,0.0429,0.7865,0.4704,0
2004/5/1 8:15,0,0,0,0.2337,0.1682,0.0429,0.6699,0.2724,0
2004/5/1 8:30,0,0,0,0.1727,0.3084,0.0436,0.575,0.3969,0
2004/5/1 8:45,0,0,0,0.1557,0.1408,0.0438,0.3275,0.3427,0
2004/5/1 9:00,0,0,0,0.1564,0.1937,0.0432,0.055,0.3449,0
2004/5/1 9:15,0,0,0,0.1741,0.3043,0.0433,0.0079,0.324,0
2004/5/1 9:30,0,0,0,0.1902,0.1355,0.0431,0.0078,0.3429,0
2004/5/1 9:45,0,0,0,0.3267,0.2629,0.0431,0.0521,0.6781,0
2004/5/1 10:00,0,0,0,1.8017,0.3924,0.0431,0.0081,0.9471,0
2004/5/1 10:15,0,0,0,3.4867,0.1858,0.0432,0.0079,1.281,0
2004/5/1 10:30,0,0,0,0.6214,0.2575,0.0433,0.052,1.3476,0
2004/5/1 10:45,0,0,0,0.1302,0.3959,0.0435,0.0078,2.5066,0
2004/5/1 11:00,0,0,0,0.1335,0.2226,0.0431,0.0547,1.4089,0
2004/5/1 11:15,0,0,0,0.1316,0.2166,0.0429,0.0084,1.3975,0
2004/5/1 11:30,0,0,0,0.1284,0.3852,0.0432,0.0082,1.3248,0
2004/5/1 11:45,0,0,0,0.1305,0.1947,0.0431,0.0528,1.2341,0
2004/5/1 12:00,0,0,0,0.132,0.2413,0.0475,0.0078,1.2148,0
2004/5/1 12:15,0,0,0,0.1312,0.3802,0.0518,0.0079,1.3213,0
2004/5/1 12:30,0,0,0,0.1309,0.1895,0.0431,0.0524,1.1223,0
2004/5/1 12:45,0,0,0,0.1351,0.2167,0.0432,0.0078,1.0956,0
2004/5/1 13:00,0,0,0,0.1279,0.3925,0.0431,0.0078,0.4872,0
2004/5/1 13:15,0,0,0,0.1342,0.2694,0.0431,0.0577,0.3017,0
2004/5/1 13:30,0,0,0,0.1316,0.1679,0.0431,0.0078,0.2886,0
2004/5/1 13:45,0,0,0,0.1325,0.3905,0.0431,0.0078,0.2965,0
2004/5/1 14:00,0,0,0,0.1342,0.2481,0.0431,0.0546,0.2952,0
2004/5/1 14:15,0,0,0,0.1341,0.1836,0.0432,0.0079,0.2856,0
2004/5/1 14:30,0,0,0,0.132,0.3892,0.0431,0.0078,0.2893,0
2004/5/1 14:45,0,0,0,0.1308,0.0651,0.0432,0.0547,0.294,0
2004/5/1 15:00,0,0,0,0.1329,0.2789,0.0432,0.0078,0.2938,0
2004/5/1 15:15,0,0,0,0.1339,0.2994,0.0432,0.0078,0.2949,0
2004/5/1 15:30,0,0,0,0.1331,0.0406,0.0432,0.0078,0.286,0
2004/5/1 15:45,0,0,0,0.1361,0.3017,0.0432,0.0497,0.2945,0
2004/5/1 16:00,0,0,0,0.1325,0.3007,0.0433,0.0078,0.2926,0
2004/5/1 16:15,0,0,0,0.1336,0.0377,0.0433,0.0079,0.2876,0
2004/5/1 16:30,0,0,0,0.1323,0.3171,0.0436,0.056,0.3015,0
2004/5/1 16:45,0,0,0,0.1333,0.2988,0.0432,0.0079,0.2866,0
2004/5/1 17:00,0,0,0,0.1322,0.102,0.0433,0.0078,0.285,0
2004/5/1 17:15,0,0,0,0.1371,0.3505,0.0431,0.0556,0.283,0
2004/5/1 17:30,0,0,0,0.1299,0.3781,0.0432,0.0091,0.3002,0
2004/5/1 17:45,0,0,0,0.1351,0.3659,0.0433,0.0079,0.2997,0
2004/5/1 18:00,0,0,0,0.1358,0.4163,0.0429,0.0078,0.288,0
2004/5/1 18:15,0,0,0,0.1313,0.1257,0.0428,0.0511,0.2943,0
2004/5/1 18:30,0,0,0,0.1362,0.219,0.0422,0.0078,0.282,0
2004/5/1 18:45,0,0,0,0.1356,0.3761,0.0426,0.0076,0.2812,0
2004/5/1 19:00,0,0,0,0.1333,0.1112,0.042,0.053,0.3476,0
2004/5/1 19:15,0,0,0,0.1356,0.3264,0.3092,0.0078,1.0531,0
2004/5/1 19:30,0,0,0,1.2528,0.3686,0.4356,0.0078,2.0259,0
2004/5/1 19:45,0,0,0,3.7518,0.1053,0.4222,0.0078,2.5298,0
2004/5/1 20:00,0,0,0,3.4358,0.3387,0.2569,0.0531,2.1548,0
2004/5/1 20:15,0,0,0,0.1299,0.3691,0.0433,0.0079,1.8929,0
2004/5/1 20:30,0,0,0,0.1407,0.139,0.0435,0.0078,1.8564,0
2004/5/1 20:45,0,0,0,0.1374,0.1892,0.0435,0.0471,1.9339,0
2004/5/1 21:00,0,0,0,0.1344,0.3057,0.0436,0.0079,2.016,0
2004/5/1 21:15,0,0,0,0.1392,0.1017,0.0425,0.0078,1.982,0
2004/5/1 21:30,0,0,0,0.1345,0.3252,0.0426,0.0572,2.1043,0
2004/5/1 21:45,0,0,0,0.1351,0.3708,0.0428,0.0078,1.9125,0
2004/5/1 22:00,0,0,0,0.1384,0.112,0.1423,0.0078,2.0989,0
2004/5/1 22:15,0,0,0,0.1355,0.326,0.4013,0.0534,1.7487,0
2004/5/1 22:30,0,0,0,0.2487,0.3705,0.4128,0.0078,1.5961,0
2004/5/1 22:45,0,0,0,4.2568,0.1466,0.4031,0.0078,1.674,0
2004/5/1 23:00,0,0,0,0.2827,0.3342,0.4144,0.0576,1.5975,0
2004/5/1 23:15,0,0,0,0.0586,0.3744,0.4192,0.0078,1.5935,0
2004/5/1 23:30,0,0,0,0.0932,0.1037,0.4146,0.0078,1.62,0
2004/5/1 23:45,0,0,0,0.1264,0.3468,0.4242,0.0504,1.6685,0
2004/5/2 0:00,0,0,0,0.1342,0.372,0.4284,0.0078,1.4933,0
2004/5/2 0:15,0,0,0,0.1361,0.0986,0.3506,0.0078,1.3476,0
2004/5/2 0:30,0,0,0,0.1385,0.3401,0.0429,0.055,0.2889,0
2004/5/2 0:45,0,0,0,0.1382,0.2532,0.0433,0.0078,0.2951,0
2004/5/2 1:00,0,0,0,0.1367,0.1336,0.0432,0.0078,0.2949,0
2004/5/2 1:15,0,0,0,0.1405,0.3076,0.0436,0.0572,0.301,0
2004/5/2 1:30,0,0,0,0.1405,0.1816,0.0433,0.0078,0.3053,0
2004/5/2 1:45,0,0,0,0.141,0.1466,0.0433,0.0078,0.2763,0
2004/5/2 2:00,0,0,0,0.1401,0.3041,0.0435,0.0554,0.3095,0
2004/5/2 2:15,0,0,0,0.1385,0.1761,0.0436,0.0078,0.3112,0
2004/5/2 2:30,0,0,0,0.1428,0.1358,0.0439,0.0079,0.3064,0
2004/5/2 2:45,0,0,0,0.1381,0.3074,0.0431,0.0078,0.2978,0
2004/5/2 3:00,0,0,0,0.1404,0.2884,0.0426,0.0573,0.2959,0
2004/5/2 3:15,0,0,0,0.14,0.2621,0.0426,0.0078,0.2989,0
2004/5/2 3:30,0,0,0,0.1428,0.4493,0.0425,0.0078,0.5253,0
2004/5/2 3:45,0,0,0,0.1443,0.5632,0.0425,0.0526,0.5111,0
2004/5/2 4:00,0,0,0,0.1408,0.4673,0.0429,0.0078,0.5185,0
2004/5/2 4:15,0,0,0,0.1385,0.484,0.0426,0.0078,0.4967,0
2004/5/2 4:30,0,0,0,0.1424,0.4236,0.0429,0.0533,0.5028,0
2004/5/2 4:45,0,0,0,0.1436,0.4478,0.0431,0.0078,0.505,0
2004/5/2 5:00,0,0,0,0.1361,0.4447,0.0429,0.0563,0.5069,0
2004/5/2 5:15,0,0,0,0.1439,0.1012,0.0429,0.0078,0.4975,0
2004/5/2 5:30,0,0,0,0.1414,0.3197,0.0431,0.0079,0.4982,0
2004/5/2 5:45,0,0,0,0.1454,0.3588,0.0431,0.0204,0.3499,0
2004/5/2 6:00,0,0,0,0.1405,0.0783,0.0431,0.0452,0.2969,0
2004/5/2 6:15,0,0,0,0.144,0.3793,0.0432,0.0078,0.293,0
2004/5/2 6:30,0,0,0,0.1407,0.2405,0.0429,0.0078,0.2892,0
2004/5/2 6:45,0,0,0,0.1452,0.1104,0.0426,0.0573,0.2935,0
2004/5/2 7:00,0,0,0,0.1408,0.3036,0.0435,0.0078,0.2904,0
2004/5/2 7:15,0,0,0,0.1436,0.1891,0.0865,0.0078,0.2815,0
2004/5/2 7:30,0,0,0,0.1433,0.1632,0.1102,0.0544,0.3221,0
2004/5/2 7:45,0,0,0,0.1441,0.2992,0.1099,0.0078,0.2932,0
2004/5/2 8:00,0,0,0,0.1464,0.09,0.1945,0.0602,0.5373,0
2004/5/2 8:15,0,0,0,0.3131,0.2933,0.4789,0.0078,1.1112,0
2004/5/2 8:30,0,0,0,2.2745,0.2225,0.447,0.0079,1.1593,0
2004/5/2 8:45,0,0,0,1.131,0.1909,0.4294,0.0079,1.1147,0
2004/5/2 9:00,0,0,0,0.1398,0.378,0.2402,0.0537,1.2836,0
2004/5/2 9:15,0,0,0,0.14,0.0719,0.0425,0.0079,1.333,0
2004/5/2 9:30,0,0,0,0.1387,0.3692,0.0423,0.0569,0.7108,0
2004/5/2 9:45,0,0,0,0.141,0.2972,0.0425,0.0076,0.2899,0
2004/5/2 10:00,0,0,0,0.1443,0.1734,0.0422,0.0078,0.2851,0
2004/5/2 10:15,0,0,0,0.1398,0.3796,0.0426,0.052,0.2802,0
2004/5/2 10:30,0,0,0,0.1403,0.1532,0.0435,0.0078,0.2904,0
2004/5/2 10:45,0,0,0,0.1437,0.1819,0.0429,0.0078,0.2946,0
2004/5/2 11:00,0,0,0,0.1423,0.2971,0.0429,0.0549,0.29,0
2004/5/2 11:15,0,0,0,0.1385,0.1345,0.0431,0.0078,0.2968,0
2004/5/2 11:30,0,0,0,0.1404,0.233,0.0428,0.0562,0.2775,0
2004/5/2 11:45,0,0,0,0.1444,0.2648,0.0425,0.0078,0.2981,0
2004/5/2 12:00,0,0,0,0.1371,0.109,0.0426,0.0078,0.2844,0
2004/5/2 12:15,0,0,0,0.1418,0.3076,0.0511,0.0559,0.3041,0
2004/5/2 12:30,0,0,0,0.1444,0.1395,0.0426,0.0078,0.2843,0
2004/5/2 12:45,0,0,0,0.1403,0.2173,0.0426,0.0078,0.2959,0
2004/5/2 13:00,0,0,0,0.1374,0.2802,0.0428,0.055,0.2968,0
2004/5/2 13:15,0,0,0,0.1424,0.1168,0.0428,0.0078,0.2858,0
2004/5/2 13:30,0,0,0,0.142,0.306,0.0425,0.0078,0.2922,0
2004/5/2 13:45,0,0,0,0.138,0.1392,0.0428,0.0625,0.2943,0
2004/5/2 14:00,0,0,0,0.1407,0.2094,0.0429,0.0078,0.2879,0
2004/5/2 14:15,0,0,0,0.1416,0.2998,0.0426,0.0078,0.2915,0
2004/5/2 14:30,0,0,0,0.1401,0.0916,0.0429,0.0553,0.2847,0
2004/5/2 14:45,0,0,0,0.1378,0.3089,0.0428,0.0078,0.29,0
2004/5/2 15:00,0,0,0,0.1417,0.1557,0.0429,0.0078,0.2972,0
2004/5/2 15:15,0,0,0,0.1403,0.2026,0.0429,0.0557,0.2926,0
2004/5/2 15:30,0,0,0,0.1423,0.3015,0.0429,0.0078,0.2919,0
2004/5/2 15:45,0,0,0,0.1403,0.0825,0.0428,0.0078,0.2786,0
2004/5/2 16:00,0,0,0,0.1401,0.3139,0.0428,0.0573,0.294,0
2004/5/2 16:15,0,0,0,0.1414,0.1843,0.0426,0.0078,0.2917,0
2004/5/2 16:30,0,0,0,0.141,0.1737,0.0428,0.0078,0.2903,0
2004/5/2 16:45,0,0,0,0.14,0.3031,0.0425,0.0599,0.2896,0
2004/5/2 17:00,0,0,0,0.1375,0.2144,0.0428,0.0078,0.2832,0
2004/5/2 17:15,0,0,0,0.1437,0.2164,0.0431,0.0078,0.2923,0
2004/5/2 17:30,0,0,0,0.1413,0.3817,0.0433,0.0528,0.2863,0
2004/5/2 17:45,0,0,0,0.1405,0.3931,0.0435,0.0078,0.2915,0
2004/5/2 18:00,0,0,0,0.1388,0.036,0.0428,0.0078,0.2912,0
2004/5/2 18:15,0,0,0,0.1397,0.3643,0.0428,0.0505,0.2857,0
2004/5/2 18:30,0,0,0,0.1437,0.3648,0.0429,0.0078,0.2856,0
2004/5/2 18:45,0,0,0,0.1401,0.0975,0.0425,0.0523,0.2897,0
2004/5/2 19:00,0,0,0,0.1427,0.3833,0.0422,0.0078,0.3328,0
2004/5/2 19:15,0,0,0,0.1394,0.2036,0.0602,0.0078,0.3329,0
2004/5/2 19:30,0,0,0,0.1398,0.2635,0.0426,0.0577,0.3339,0
2004/5/2 19:45,0,0,0,0.1457,0.3434,0.0426,0.0078,0.347,0
2004/5/2 20:00,0,0,0,0.1437,0.1142,0.0917,0.0079,1.6507,0
2004/5/2 20:15,0,0,0,0.1384,0.3792,0.282,0.0582,1.7581,0
2004/5/2 20:30,0,0,0,0.1441,0.1512,0.343,0.0078,1.549,0
2004/5/2 20:45,0,0,0,0.1384,0.2858,0.3264,0.0079,1.4875,0
2004/5/2 21:00,0,0,0,0.1404,0.3727,0.4054,0.055,1.6102,0
2004/5/2 21:15,0,0,0,0.1397,0.1237,0.4032,0.0079,1.5873,0
2004/5/2 21:30,0,0,0,0.139,0.2802,0.3767,0.0078,1.6484,0
2004/5/2 21:45,0,0,0,0.1362,0.3681,0.0488,0.0572,2.4006,0
2004/5/2 22:00,0,0,0,0.1381,0.1367,0.2867,0.0078,1.6452,0
2004/5/2 22:15,0,0,0,0.1417,0.2971,0.3858,0.2451,1.313,0
2004/5/2 22:30,0,0,0,0.1384,0.2645,0.4133,0.8637,1.3673,0
2004/5/2 22:45,0,0,0,0.1358,0.2023,0.4072,0.487,1.2871,0
2004/5/2 23:00,0,0,0,0.1387,0.3784,0.4159,0.8205,1.2398,0
2004/5/2 23:15,0,0,0,0.138,0.2432,0.432,0.1742,1.2714,0
2004/5/2 23:30,0,0,0,0.1391,0.1701,0.4323,0.0078,1.4243,0
2004/5/2 23:45,0,0,0,0.1388,0.3754,0.4499,0.0495,1.3265,0
2004/5/3 0:00,0,0,0,0.1413,0.0865,0.4228,0.0078,0.8823,0
2004/5/3 0:15,0,0,0,0.1388,0.3524,0.0429,0.0078,0.3819,0
2004/5/3 0:30,0,0,0,0.1398,0.2028,0.0433,0.0564,0.4177,0
2004/5/3 0:45,0,0,0,0.1404,0.1935,0.0431,0.0078,0.4008,0
2004/5/3 1:00,0,0,0,0.1395,0.2759,0.0438,0.0261,0.4162,0
2004/5/3 1:15,0,0,0,0.1375,0.0539,0.0433,0.0364,0.4156,0
2004/5/3 1:30,0,0,0,0.144,0.3074,0.0432,0.0078,0.4133,0
2004/5/3 1:45,0,0,0,0.139,0.1787,0.0433,0.052,0.3721,0
2004/5/3 2:00,0,0,0,0.1398,0.2127,0.0436,0.0079,0.3381,0
2004/5/3 2:15,0,0,0,0.1424,0.285,0.0438,0.0078,0.3429,0
2004/5/3 2:30,0,0,0,0.1423,0.0759,0.0439,0.054,0.348,0
2004/5/3 2:45,0,0,0,0.1404,0.3093,0.0429,0.0078,0.3423,0
2004/5/3 3:00,0,0,0,0.1388,0.2902,0.0426,0.0078,0.3385,0
2004/5/3 3:15,0,0,0,0.1426,0.2912,0.0428,0.0521,0.3397,0
2004/5/3 3:30,0,0,0,0.1418,0.4585,0.0428,0.0078,0.3372,0
2004/5/3 3:45,0,0,0,0.1418,0.5661,0.0429,0.055,0.356,0
2004/5/3 4:00,0,0,0,0.1434,0.455,0.0429,0.0079,0.338,0
2004/5/3 4:15,0,0,0,0.1377,0.4612,0.0429,0.0078,0.3506,0
2004/5/3 4:30,0,0,0,0.1418,0.4144,0.0429,0.0534,0.3364,0
2004/5/3 4:45,0,0,0,0.1395,0.4496,0.0431,0.0078,0.3371,0
2004/5/3 5:00,0,0,0,0.1404,0.2684,0.0431,0.0078,0.3789,0
2004/5/3 5:15,0,0,0,0.1452,0.1498,0.0432,0.0531,0.3375,0
2004/5/3 5:30,0,0,0,0.1408,0.2923,0.0429,0.0078,0.3655,0
2004/5/3 5:45,0,0,0,0.1411,0.1968,0.0431,0.0559,0.3544,0
2004/5/3 6:00,0,0,0,0.144,0.1992,0.0433,0.0078,0.3436,0
2004/5/3 6:15,0,0,0,0.1401,0.2961,0.0432,0.0079,0.3398,0
2004/5/3 6:30,0,0,0,0.1439,0.0821,0.0429,0.0562,0.341,0
2004/5/3 6:45,0,0,0,0.1397,0.3103,0.0428,0.0078,0.3368,0
2004/5/3 7:00,0,0,0,0.1421,0.3112,0.0432,0.0078,0.3488,0
2004/5/3 7:15,0,0,0,0.1439,0.0809,0.0613,0.0544,0.3427,0
2004/5/3 7:30,0,0,0,0.1436,0.305,0.0439,0.0079,0.3607,0
2004/5/3 7:45,0,0,0,0.1423,0.3272,0.0436,0.0078,0.3468,0
2004/5/3 8:00,0,0,0,0.1431,0.1827,0.0431,0.0513,0.345,0
2004/5/3 8:15,0,0,0,0.1414,0.1596,0.0433,0.0078,0.343,0
2004/5/3 8:30,0,0,0,0.142,0.3077,0.1486,0.0526,0.4918,0
2004/5/3 8:45,0,0,0,0.1416,0.1968,0.4104,0.0078,0.7976,0
2004/5/3 9:00,0,0,0,0.1459,0.1963,0.399,0.0076,0.9667,0
2004/5/3 9:15,0,0,0,0.141,0.3011,0.4005,0.0536,0.9573,0
2004/5/3 9:30,0,0,0,0.1428,0.1931,0.4134,0.0078,0.9425,0
2004/5/3 9:45,0,0,0,0.1427,0.1957,0.4255,0.0526,1.0472,0
2004/5/3 10:00,0,0,0,0.1404,0.2952,0.4833,0.0078,1.0715,0
2004/5/3 10:15,0,0,0,0.6562,0.1927,0.4668,0.0078,1.0565,0
2004/5/3 10:30,0,0,0,2.537,0.1148,0.3182,0.0537,1.076,0
2004/5/3 10:45,0,0,0,0.99,0.3089,0.0881,0.0078,1.8648,0
2004/5/3 11:00,0,0,0,0.1397,0.3485,0.0884,0.0475,1.9067,0
2004/5/3 11:15,0,0,0,0.1384,0.057,0.0883,0.0338,1.0889,0
2004/5/3 11:30,0,0,0,0.141,0.4,0.0881,0.0533,1.1629,0
2004/5/3 11:45,0,0,0,0.1421,0.3869,0.0883,0.0078,1.401,0
2004/5/3 12:00,0,0,0,0.1405,0.0757,0.0883,0.0082,1.3857,0
2004/5/3 12:15,0,0,0,0.1398,0.3912,0.1999,0.0543,1.4075,0
2004/5/3 12:30,0,0,0,0.139,0.1316,0.4624,0.0078,1.1318,0
2004/5/3 12:45,0,0,0,0.1414,0.2566,0.4297,0.0586,1.117,0
2004/5/3 13:00,0,0,0,0.1385,0.2943,0.4177,0.0118,1.4086,0
2004/5/3 13:15,0,0,0,0.1403,0.1248,0.4369,0.0078,1.6616,0
2004/5/3 13:30,0,0,0,0.1431,0.2827,0.3803,0.053,1.5725,0
2004/5/3 13:45,0,0,0,0.1374,0.2943,0.0431,0.0078,1.6279,0
2004/5/3 14:00,0,0,0,3.5698,0.1175,0.0426,0.0078,1.3026,0
2004/5/3 14:15,0,0,0,1.86,0.3577,0.0429,0.0547,1.2892,0
2004/5/3 14:30,0,0,0,0.138,0.2537,0.0433,0.0078,1.2567,0
2004/5/3 14:45,0,0,0,0.1405,0.1371,0.0431,0.0079,1.3277,0
2004/5/3 15:00,0,0,0,0.1371,0.3034,0.0431,0.056,1.2354,0
2004/5/3 15:15,0,0,0,0.1414,0.192,0.0432,0.0078,1.2352,0
2004/5/3 15:30,0,0,0,0.1387,0.1336,0.0432,0.053,1.2383,0
2004/5/3 15:45,0,0,0,0.1404,0.3044,0.0433,0.0079,1.2583,0
2004/5/3 16:00,0,0,0,0.1413,0.1871,0.0431,0.0078,1.246,0
2004/5/3 16:15,0,0,0,0.1392,0.2022,0.0431,0.0534,1.3571,0
2004/5/3 16:30,0,0,0,0.1372,0.3806,0.0431,0.0079,1.4331,0
2004/5/3 16:45,0,0,0,0.1381,0.0432,0.0431,0.0467,1.2547,0
2004/5/3 17:00,0,0,0,0.1395,0.3041,0.0426,0.0147,1.3823,0
2004/5/3 17:15,0,0,0,0.1411,0.2988,0.0428,0.0078,1.4887,0
2004/5/3 17:30,0,0,0,0.5636,0.2039,0.0425,0.0556,1.5342,0
2004/5/3 17:45,0,0,0,0.1434,0.2791,0.0423,0.0078,1.3838,0
2004/5/3 18:00,0,0,0,4.6584,0.3819,0.0425,0.0078,1.7561,0
2004/5/3 18:15,0,0,0,1.8248,0.1735,0.0429,0.0572,2.0409,0
2004/5/3 18:30,0,0,0,0.6283,0.2654,0.1405,0.0078,1.6911,0
2004/5/3 18:45,0,0,0,0.183,0.3767,0.1361,0.0078,1.6517,0
2004/5/3 19:00,0,0,0,0.168,0.1764,0.0425,0.0553,1.7448,0
2004/5/3 19:15,0,0,0,0.1611,0.2886,0.06,0.0078,1.7071,0
2004/5/3 19:30,0,0,0,1.2872,0.3767,0.0426,0.0521,1.8734,0
2004/5/3 19:45,0,0,0,2.3129,0.1626,0.0423,0.0078,2.2939,0
2004/5/3 20:00,0,0,0,1.8704,0.2681,0.0425,0.0078,1.983,0
2004/5/3 20:15,0,0,0,0.2339,0.3753,0.0428,0.0549,1.764,0
2004/5/3 20:30,0,0,0,0.2451,0.1918,0.0428,0.0078,2.6732,0
2004/5/3 20:45,0,0,0,0.2337,0.2709,0.0428,0.0078,1.7284,0
2004/5/3 21:00,0,0,0,0.2369,0.3797,0.0426,0.0564,1.7781,0
2004/5/3 21:15,0,0,0,0.2445,0.183,0.0426,0.0446,1.9738,0
2004/5/3 21:30,0,0,0,0.237,0.2897,0.0431,0.0078,2.1203,0
2004/5/3 21:45,0,0,0,0.2303,0.3686,0.0425,0.0078,1.5052,0
2004/5/3 22:00,0,0,0,0.2474,0.1901,0.0428,0.0534,0.9474,0
2004/5/3 22:15,0,0,0,0.2353,0.2543,0.0428,0.0078,0.8532,0
2004/5/3 22:30,0,0,0,0.2426,0.3084,0.0779,0.0557,0.881,0
2004/5/3 22:45,0,0,0,0.1668,0.1287,0.4039,0.0078,0.9294,0
2004/5/3 23:00,0,0,0,0.1377,0.384,0.4009,0.0079,1.0077,0
2004/5/3 23:15,0,0,0,0.1374,0.2788,0.3964,0.0586,0.9298,0
2004/5/3 23:30,0,0,0,0.1351,0.1485,0.3744,0.0078,0.9773,0
2004/5/3 23:45,0,0,0,0.1372,0.3874,0.41,0.0078,0.9899,0
2004/5/4 0:00,0,0,0,0.2799,0.2696,0.4054,0.0537,1.0715,0
2004/5/4 0:15,0,0,0,0.1384,0.1358,0.4118,0.0078,0.9991,0
2004/5/4 0:30,0,0,0,0.1354,0.3879,0.4117,0.0078,0.9937,0
2004/5/4 0:45,0,0,0,0.1382,0.1047,0.1945,0.0526,0.9871,0
2004/5/4 1:00,0,0,0,0.1358,0.2244,0.1364,0.0079,1.064,0
2004/5/4 1:15,0,0,0,0.1403,0.2966,0.2091,0.0078,0.86,0
2004/5/4 1:30,0,0,0,0.1371,0.0749,0.0431,0.051,0.357,0
2004/5/4 1:45,0,0,0,0.1364,0.2353,0.0433,0.0078,0.3658,0
2004/5/4 2:00,0,0,0,0.1391,0.3001,0.0436,0.0452,0.356,0
2004/5/4 2:15,0,0,0,0.1384,0.0716,0.0432,0.0156,0.3626,0
2004/5/4 2:30,0,0,0,0.1395,0.2606,0.0438,0.0079,0.3578,0
2004/5/4 2:45,0,0,0,0.1381,0.2966,0.0438,0.0602,0.357,0
2004/5/4 3:00,0,0,0,0.1381,0.2945,0.0439,0.0079,0.3531,0
2004/5/4 3:15,0,0,0,0.14,0.2609,0.0438,0.0078,0.3545,0
2004/5/4 3:30,0,0,0,0.1369,0.5643,0.0425,0.0553,0.347,0
2004/5/4 3:45,0,0,0,0.1414,0.4923,0.0428,0.0078,0.3488,0
2004/5/4 4:00,0,0,0,0.1374,0.5229,0.0428,0.0078,0.3505,0
2004/5/4 4:15,0,0,0,0.1368,0.4618,0.0425,0.0564,0.3685,0
2004/5/4 4:30,0,0,0,0.1381,0.4301,0.0426,0.0078,0.3545,0
2004/5/4 4:45,0,0,0,0.1404,0.4452,0.0426,0.0078,0.3424,0
2004/5/4 5:00,0,0,0,0.1378,0.3925,0.0428,0.0573,0.379,0
2004/5/4 5:15,0,0,0,0.141,0.0308,0.0426,0.0078,0.3669,0
2004/5/4 5:30,0,0,0,0.1371,0.363,0.0429,0.0078,0.3394,0
2004/5/4 5:45,0,0,0,0.1381,0.3031,0.0429,0.0589,0.3432,0
2004/5/4 6:00,0,0,0,0.141,0.1162,0.0429,0.0078,0.337,0
2004/5/4 6:15,0,0,0,0.1371,0.3783,0.0428,0.0078,0.3455,0
2004/5/4 6:30,0,0,0,0.1417,0.1889,0.0428,0.053,0.3437,0
2004/5/4 6:45,0,0,0,0.1388,0.286,0.0432,0.0078,0.3299,0
2004/5/4 7:00,0,0,0,0.1372,0.3516,0.0441,0.0079,0.3711,0
2004/5/4 7:15,0,0,0,0.1392,0.0724,0.0612,0.0521,0.3542,0
2004/5/4 7:30,0,0,0,0.1377,0.3842,0.0438,0.0078,0.3535,0
2004/5/4 7:45,0,0,0,0.1398,0.364,0.0439,0.0079,0.3511,0
2004/5/4 8:00,0,0,0,0.1397,0.0508,0.0435,0.0582,0.3547,0
2004/5/4 8:15,0,0,0,0.1385,0.3473,0.0435,0.0079,0.3498,0
2004/5/4 8:30,0,0,0,0.1407,0.3365,0.0432,0.0078,0.3633,0
2004/5/4 8:45,0,0,0,0.1359,0.1223,0.0428,0.0562,0.3414,0
2004/5/4 9:00,0,0,0,0.1401,0.3806,0.0426,0.0079,0.3714,0
2004/5/4 9:15,0,0,0,0.1374,0.2049,0.0431,0.0078,0.8608,0
2004/5/4 9:30,0,0,0,1.9909,0.2615,0.0432,0.0595,1.096,0
2004/5/4 9:45,0,0,0,4.0546,0.3741,0.0431,0.0078,1.2424,0
2004/5/4 10:00,0,0,0,2.3322,0.1646,0.0433,0.0079,1.2521,0
2004/5/4 10:15,0,0,0,0.4327,0.2445,0.0435,0.0511,1.0873,0
2004/5/4 10:30,0,0,0,0.1015,0.2899,0.0435,0.0078,1.0829,0
2004/5/4 10:45,0,0,0,0.1289,0.0763,0.0435,0.0079,1.1743,0
2004/5/4 11:00,0,0,0,0.1369,0.3038,0.0435,0.055,1.1724,0
2004/5/4 11:15,0,0,0,0.1392,0.2208,0.0436,0.0085,1.2898,0
2004/5/4 11:30,0,0,0,0.1411,0.077,0.0433,0.0079,1.1886,0
2004/5/4 11:45,0,0,0,0.1372,0.3103,0.0435,0.055,1.6553,0
2004/5/4 12:00,0,0,0,0.1355,0.2156,0.0433,0.0079,1.4216,0
2004/5/4 12:15,0,0,0,0.1401,0.0832,0.052,0.0078,1.2828,0
2004/5/4 12:30,0,0,0,0.1351,0.3103,0.0432,0.0563,1.1094,0
2004/5/4 12:45,0,0,0,0.1385,0.2131,0.0432,0.0079,1.1832,0
2004/5/4 13:00,0,0,0,0.8503,0.1712,0.2628,0.0078,1.1133,0
2004/5/4 13:15,0,0,0,5.0031,0.391,0.4274,0.0549,1.1526,0
2004/5/4 13:30,0,0,0,1.8772,0.2631,0.4892,0.0078,2.2212,0
2004/5/4 13:45,0,0,0,0.8653,0.2061,0.2025,0.0078,1.715,0
2004/5/4 14:00,0,0,0,0.1355,0.3953,0.1017,0.0557,1.0804,0
2004/5/4 14:15,0,0,0,0.1378,0.2507,0.0963,0.0079,1.3272,0
2004/5/4 14:30,0,0,0,0.1388,0.0955,0.0886,0.0078,0.811,0
2004/5/4 14:45,0,0,0,0.1368,0.3986,0.0887,0.0585,0.7332,0
2004/5/4 15:00,0,0,0,0.1369,0.2968,0.1552,0.0078,0.7426,0
2004/5/4 15:15,0,0,0,0.1356,0.1768,0.4081,0.0078,0.7377,0
2004/5/4 15:30,0,0,0,0.1405,0.3891,0.4059,0.0517,0.7442,0
2004/5/4 15:45,0,0,0,0.1344,0.2616,0.4164,0.0078,0.7308,0
2004/5/4 16:00,0,0,0,0.1397,0.1539,0.3721,0.0078,0.7312,0
2004/5/4 16:15,0,0,0,0.1358,0.3859,0.2745,0.0517,0.8402,0
2004/5/4 16:30,0,0,0,0.1378,0.0706,0.0426,0.0079,0.8487,0
2004/5/4 16:45,0,0,0,0.1397,0.2647,0.0429,0.0078,0.7341,0
2004/5/4 17:00,0,0,0,0.1364,0.2952,0.0431,0.0593,0.7492,0
2004/5/4 17:15,0,0,0,0.1369,0.0533,0.0431,0.0079,0.8083,0
2004/5/4 17:30,0,0,0,0.1374,0.27,0.0426,0.0078,1.1909,0
2004/5/4 17:45,0,0,0,0.1368,0.3024,0.0423,0.0527,2.5564,0
2004/5/4 18:00,0,0,0,0.1335,0.0505,0.0422,0.0078,2.1774,0
2004/5/4 18:15,0,0,0,0.1397,0.3182,0.0426,0.0078,1.9712,0
2004/5/4 18:30,0,0,0,0.1411,0.2982,0.2323,0.0549,1.2656,0
2004/5/4 18:45,0,0,0,0.1352,0.3864,0.4408,0.0079,1.2129,0
2004/5/4 19:00,0,0,0,0.1381,0.2193,0.4434,0.0078,1.1925,0
2004/5/4 19:15,0,0,0,0.1352,0.2209,0.447,0.0583,1.1124,0
2004/5/4 19:30,0,0,0,0.1384,0.3833,0.4651,0.0078,1.1147,0
2004/5/4 19:45,0,0,0,0.1371,0.2202,0.4234,0.0079,1.1137,0
2004/5/4 20:00,0,0,0,0.1346,0.2579,0.4375,0.0078,1.1249,0
2004/5/4 20:15,0,0,0,0.1342,0.3822,0.4369,0.0554,1.12,0
2004/5/4 20:30,0,0,0,0.1336,0.1905,0.4319,0.0078,1.1087,0
2004/5/4 20:45,0,0,0,0.1356,0.2448,0.4297,0.0078,1.1055,0
2004/5/4 21:00,0,0,0,0.1367,0.3783,0.417,0.0498,1.0984,0
2004/5/4 21:15,0,0,0,0.1315,0.1849,0.4028,0.0078,1.1101,0
2004/5/4 21:30,0,0,0,0.1342,0.248,0.4507,0.0079,1.1154,0
2004/5/4 21:45,0,0,0,0.1377,0.3797,0.4061,0.0543,1.0994,0
2004/5/4 22:00,0,0,0,0.1355,0.3794,0.3868,0.0078,0.7858,0
2004/5/4 22:15,0,0,0,0.1362,0.2624,0.3807,0.0078,0.7838,0
2004/5/4 22:30,0,0,0,0.1365,0.1748,0.3992,0.0485,0.7845,0
2004/5/4 22:45,0,0,0,0.1332,0.3784,0.4388,0.0081,1.1832,0
2004/5/4 23:00,0,0,0,0.8768,0.2491,0.4218,0.0078,1.2299,0
2004/5/4 23:15,0,0,0,0.1385,0.1827,0.3938,0.05,1.1935,0
2004/5/4 23:30,0,0,0,0.1377,0.3904,0.4005,0.0078,0.9318,0
2004/5/4 23:45,0,0,0,0.1374,0.2357,0.3918,0.0079,0.8349,0
2004/5/5 0:00,0,0,0,0.1367,0.194,0.3884,0.0588,0.6792,0
2004/5/5 0:15,0,0,0,0.1351,0.3843,0.1837,0.0078,0.6911,0
2004/5/5 0:30,0,0,0,0.1359,0.0484,0.0435,0.0079,0.6828,0
2004/5/5 0:45,0,0,0,0.1403,0.288,0.0435,0.0517,0.6735,0
2004/5/5 1:00,0,0,0,0.1374,0.293,0.0435,0.0078,0.3489,0
2004/5/5 1:15,0,0,0,0.1369,0.034,0.0432,0.0078,0.3452,0
2004/5/5 1:30,0,0,0,0.1375,0.2948,0.0435,0.0516,0.3528,0
2004/5/5 1:45,0,0,0,0.1391,0.2994,0.0436,0.0079,0.3488,0
2004/5/5 2:00,0,0,0,0.1384,0.0327,0.0436,0.0078,0.3527,0
2004/5/5 2:15,0,0,0,0.1359,0.3207,0.0435,0.0528,0.3444,0
2004/5/5 2:30,0,0,0,0.1339,0.2945,0.0435,0.0079,0.348,0
2004/5/5 2:45,0,0,0,0.1398,0.2988,0.0438,0.0078,0.3528,0
2004/5/5 3:00,0,0,0,0.1391,0.3106,0.0436,0.0448,0.3548,0
2004/5/5 3:15,0,0,0,0.1407,0.5805,0.0441,0.0078,0.3555,0
2004/5/5 3:30,0,0,0,0.138,0.4905,0.0441,0.0079,0.3587,0
2004/5/5 3:45,0,0,0,0.1375,0.517,0.0439,0.0511,0.3495,0
2004/5/5 4:00,0,0,0,0.1369,0.4524,0.0444,0.0079,0.3574,0
2004/5/5 4:15,0,0,0,0.1381,0.4415,0.0441,0.0078,0.3537,0
2004/5/5 4:30,0,0,0,0.1411,0.4569,0.0429,0.051,0.3485,0
2004/5/5 4:45,0,0,0,0.138,0.2889,0.0429,0.0078,0.354,0
2004/5/5 5:00,0,0,0,0.1384,0.089,0.0431,0.0078,0.3383,0
2004/5/5 5:15,0,0,0,0.141,0.3887,0.0429,0.0536,0.33,0
2004/5/5 5:30,0,0,0,0.1381,0.2632,0.0429,0.0078,0.3423,0
2004/5/5 5:45,0,0,0,0.1369,0.1675,0.0432,0.0078,0.3352,0
2004/5/5 6:00,0,0,0,0.1436,0.3789,0.0431,0.0498,0.3426,0
2004/5/5 6:15,0,0,0,0.1397,0.2642,0.0429,0.0078,0.3531,0